| time (UTC) | temp F | wind direction | speed MPH | gust MPH | rain 1hr in | rain 24hr in | rain mn in | humidity % | barometer mb |
| 20260505082616 | 53 | 0.0 | 0.0 | 0.00 | 0.00 | 0.00 | 93 | 995.0 | |
| 20260505081614 | 53 | 0.0 | 0.0 | 0.00 | 0.00 | 0.00 | 92 | 994.9 | |
| 20260505080615 | 53 | 0.0 | 0.0 | 0.00 | 0.00 | 0.00 | 91 | 994.9 | |
| 20260505075614 | 54 | 0.0 | 0.0 | 0.00 | 0.00 | 0.00 | 91 | 994.8 | |
| 20260505074614 | 54 | 0.0 | 0.0 | 0.00 | 0.00 | 0.00 | 90 | 994.7 | |
| 20260505073617 | 54 | 0.0 | 0.0 | 0.00 | 0.00 | 0.00 | 89 | 994.5 | |
| 20260505072615 | 54 | 0.0 | 0.0 | 0.00 | 0.00 | 0.00 | 89 | 994.6 | |
| 20260505071614 | 55 | 0.0 | 0.0 | 0.00 | 0.00 | 0.00 | 88 | 994.4 | |
| 20260505070614 | 55 | 0.0 | 0.0 | 0.00 | 0.00 | 0.00 | 87 | 994.2 | |
| 20260505065615 | 55 | 0.0 | 0.0 | 0.00 | 0.00 | 0.00 | 87 | 994.1 | |
| 20260505064614 | 55 | 0.0 | 0.0 | 0.00 | 0.00 | 0.00 | 86 | 994.0 | |
| 20260505063614 | 55 | 0.0 | 0.0 | 0.00 | 0.00 | 0.00 | 85 | 994.0 | |
| 20260505062614 | 56 | 0.0 | 0.0 | 0.00 | 0.00 | 0.00 | 84 | 993.9 | |
| 20260505061613 | 56 | 0.0 | 0.0 | 0.00 | 0.00 | 0.00 | 83 | 993.7 | |
| 20260505060614 | 57 | 0.0 | 0.0 | 0.00 | 0.00 | 0.00 | 82 | 993.7 | |
| 20260505055614 | 57 | 0.0 | 0.0 | 0.00 | 0.00 | 0.00 | 82 | 993.7 | |
| 20260505054614 | 58 | 0.0 | 0.0 | 0.00 | 0.00 | 0.00 | 82 | 993.7 | |
| 20260505053515 | 58 | 0.0 | 0.0 | 0.00 | 0.00 | 0.00 | 80 | 993.5 | |
| 20260505052614 | 59 | 0.0 | 0.0 | 0.00 | 0.00 | 0.00 | 79 | 993.5 | |
| 20260505051614 | 59 | 0.0 | 0.0 | 0.00 | 0.00 | 0.00 | 76 | 993.4 | |
| 20260505050634 | 60 | 0.0 | 0.0 | 0.00 | 0.00 | 0.00 | 77 | 993.2 | |
| 20260505041639 | 63 | 0.0 | 0.0 | 0.00 | 0.00 | 0.00 | 69 | 992.8 | |
| 20260505040535 | 64 | 0.0 | 0.0 | 0.00 | 0.00 | 0.00 | 65 | 992.7 | |
| 20260505035614 | 65 | 0.0 | 0.0 | 0.00 | 0.00 | 0.00 | 65 | 992.5 | |
| 20260505034614 | 66 | 0.0 | 0.0 | 0.00 | 0.00 | 0.00 | 62 | 992.3 | |
| 20260505033614 | 66 | 0.0 | 0.0 | 0.00 | 0.00 | 0.00 | 60 | 992.2 | |
| 20260505032615 | 66 | 0.0 | 0.0 | 0.00 | 0.00 | 0.00 | 67 | 992.0 | |
| 20260505031634 | 67 | 0.0 | 0.0 | 0.00 | 0.00 | 0.00 | 69 | 992.0 | |
| 20260505030614 | 68 | 0.0 | 0.0 | 0.00 | 0.00 | 0.00 | 66 | 991.7 | |
| 20260505025614 | 69 | 0.0 | 0.0 | 0.00 | 0.00 | 0.00 | 65 | 991.8 | |
| 20260505024520 | 70 | 0.0 | 0.0 | 0.00 | 0.00 | 0.00 | 63 | 991.6 | |
| 20260505023614 | 70 | 0.0 | 0.0 | 0.00 | 0.00 | 0.00 | 61 | 991.5 | |
| 20260505022614 | 71 | 0.0 | 0.0 | 0.00 | 0.00 | 0.00 | 60 | 991.6 |